Location: Street
(51.1247°N, 2.7429°W)
Time: 01:31:17
(UTC+00:00)

deb Explorer IX - Pass Details

Date: 12 December 2020
Orbit: 536 x 1104 km, 38.8° (Epoch: 20 January)

Event Time Altitude Azimuth Distance (km) Brightness Sun altitude
Rises 16:41:18 0° 263° (W) 3,855 ? -5.7°
Reaches altitude 10° 16:46:27 10° 232° (SW) 2,796 ? -6.4°
Maximum altitude 16:48:23 11° 216° (SW) 2,650 ? -6.7°
Drops below altitude 10° 16:50:15 10° 199° (SSW) 2,693 ? -7.0°
Sets 16:54:55 0° 167° (SSE) 3,483 ? -7.6°
